Weather History for GMMX - December, 2013

Change the Weather History Date:

Monday, December 9, 2013

  Actual Average Record
Temperature  
Mean Temperature 57 °F -  
Max Temperature 70 °F 64 °F 87 °F (2010)
Min Temperature 44 °F 43 °F 39 °F (1998)
Degree Days  
Heating Degree Days 8    
Growing Degree Days 7 (Base 50)    
Moisture  
Dew Point 40 °F    
Average Humidity 55    
Maximum Humidity 82    
Minimum Humidity 21    
Precipitation  
Precipitation 0.00 in 0.04 in - ()
Sea Level Pressure  
Sea Level Pressure 30.22 in    
Wind  
Wind Speed 3 mph ()    
Max Wind Speed 7 mph    
Max Gust Speed -    
Visibility 5.7 miles    
Events      
Averages and records for this station are not official NWS values.
T = Trace of Precipitation, MM = Missing Value Source: Averaged Metar Reports

Daily Weather History Graph

Daily Weather History Graph

Search for Another Location

Airport or City:

Trip Planner

Search our weather history database for the weather conditions in past years. The results will help you decide how hot, cold, wet, or windy it might be!

Date:

Astronomy

Dec. 09, 2013 Rise Set
Actual Time 7:20 AM WET 5:28 PM WET
Civil Twilight 6:53 AM WET 5:55 PM WET
Nautical Twilight 6:23 AM WET 6:25 PM WET
Astronomical Twilight 5:53 AM WET 6:55 PM WET
Moon 12:26 PM WET (12/9) No Moon Set
Length of Visible Light 11h 02m
Length of Day
10h 08m
Waxing Crescent, 48% of the Moon is Illuminated
Dec 9
Waxing Crescent
Dec 9
First Quarter
Dec 17
Full
Dec 25
Last Quarter
Jan 1
New

Hourly Weather History & Observations

Time (WET) Temp. Windchill Dew Point Humidity Pressure Visibility Wind Dir Wind Speed Gust Speed Precip Events Conditions
12:00 AM 51 °F - 43 °F 65% 30.23 in 6 mi SE 3.5 mph - -  
12:00 AM 51.8 °F - 42.8 °F 71% 30.21 in - SE 3.5 mph - N/A   Clear
12:30 AM 50.0 °F - 42.8 °F 76% 30.21 in - East 2.3 mph - N/A   Clear
1:00 AM 50.0 °F - 42.8 °F 76% 30.21 in - ESE 3.5 mph - N/A   Clear
1:30 AM 50.0 °F - 41.0 °F 71% 30.21 in - ENE 5.8 mph - N/A   Clear
2:00 AM 48.2 °F - 41.0 °F 76% 30.21 in - ESE 4.6 mph - N/A   Clear
2:30 AM 48.2 °F - 42.8 °F 82% 30.21 in - Variable 1.2 mph - N/A   Clear
3:00 AM 48 °F - 41 °F 70% 30.26 in 6 mi SE 2.3 mph - -  
3:00 AM 46.4 °F - 41.0 °F 81% 30.21 in 6.2 mi Variable 2.3 mph - N/A   Unknown
3:30 AM 50.0 °F - 39.2 °F 66% 30.21 in 6.2 mi SSE 6.9 mph - N/A   Unknown
4:00 AM 50.0 °F - 39.2 °F 66% 30.21 in 6.2 mi SSE 3.5 mph - N/A   Unknown
4:30 AM 50.0 °F - 39.2 °F 66% 30.21 in - Variable 2.3 mph - N/A   Clear
5:00 AM 48.2 °F - 39.2 °F 71% 30.21 in - Variable 2.3 mph - N/A   Clear
5:30 AM 46.4 °F - 39.2 °F 76% 30.21 in - Variable 2.3 mph - N/A   Clear
6:00 AM 47 °F - 40 °F 68% 30.24 in 6 mi East 2.3 mph - -  
6:00 AM 46.4 °F - 39.2 °F 76% 30.21 in - Variable 1.2 mph - N/A   Clear
6:30 AM 46.4 °F - 39.2 °F 76% 30.21 in - Variable 2.3 mph - N/A   Clear
7:00 AM 44.6 °F 43.1 °F 39.2 °F 81% 30.21 in - East 3.5 mph - N/A   Clear
7:30 AM 44.6 °F - 39.2 °F 81% 30.21 in - ENE 2.3 mph - N/A   Clear
8:00 AM 46.4 °F - 39.2 °F 76% 30.24 in - ENE 1.2 mph - N/A   Clear
8:30 AM 50.0 °F - 42.8 °F 76% 30.24 in - East 1.2 mph - N/A   Clear
9:00 AM 55 °F - 40 °F 45% 30.27 in 6 mi ESE 1.2 mph - -   Clear
9:00 AM 55.4 °F - 39.2 °F 54% 30.27 in - Variable 1.2 mph - N/A   Clear
9:30 AM 57.2 °F - 41.0 °F 55% 30.27 in - Variable 1.2 mph - N/A   Clear
10:00 AM 59.0 °F - 41.0 °F 51% 30.27 in - Variable 1.2 mph - N/A   Clear
10:30 AM 60.8 °F - 41.0 °F 48% 30.27 in - Variable 2.3 mph - N/A   Clear
11:00 AM 62.6 °F - 41.0 °F 45% 30.27 in - Variable 1.2 mph - N/A   Clear
11:30 AM 64.4 °F - 41.0 °F 42% 30.27 in - Variable 2.3 mph - N/A   Clear
12:00 PM 65 °F - 41 °F 30% 30.23 in 6 mi NNW 4.6 mph - -   Clear
12:00 PM 64.4 °F - 41.0 °F 42% 30.27 in - NNW 4.6 mph - N/A   Clear
12:30 PM 66.2 °F - 39.2 °F 37% 30.24 in - NNW 3.5 mph - N/A   Clear
1:00 PM 68.0 °F - 39.2 °F 35% 30.21 in - Variable 2.3 mph - N/A   Clear
1:30 PM 69.8 °F - 39.2 °F 33% 30.21 in - Variable 2.3 mph - N/A   Clear
2:00 PM 69.8 °F - 39.2 °F 33% 30.21 in - NNE 2.3 mph - N/A   Clear
2:30 PM 69.8 °F - 39.2 °F 33% 30.18 in - Variable 3.5 mph - N/A   Clear
3:00 PM 70 °F - 39 °F 21% 30.14 in 6 mi NNW 5.8 mph - -   Clear
3:00 PM 69.8 °F - 39.2 °F 33% 30.18 in - NNW 4.6 mph - N/A   Clear
3:30 PM 69.8 °F - 39.2 °F 33% 30.18 in - NNW 4.6 mph - N/A   Clear
4:30 PM 69.8 °F - 39.2 °F 33% 30.18 in - North 3.5 mph - N/A   Clear
5:00 PM 68.0 °F - 37.4 °F 33% 30.18 in - NNW 3.5 mph - N/A   Clear
5:30 PM 66.2 °F - 39.2 °F 37% 30.18 in - North 3.5 mph - N/A   Clear
5:48 PM 65 °F - 38 °F 25% 30.16 in 6 mi NW 2.3 mph - -   Clear
6:00 PM 66.2 °F - 37.4 °F 35% 30.18 in - NW 2.3 mph - N/A   Clear
6:30 PM 62.6 °F - 39.2 °F 42% 30.21 in - West 3.5 mph - N/A   Clear
7:00 PM 59.0 °F - 41.0 °F 51% 30.21 in 5.0 mi West 2.3 mph - N/A   Unknown
7:30 PM 59.0 °F - 41.0 °F 51% 30.21 in - SW 3.5 mph - N/A   Clear
8:00 PM 55.4 °F - 41.0 °F 58% 30.21 in - SW 4.6 mph - N/A   Clear
8:30 PM 55.4 °F - 39.2 °F 54% 30.21 in 6.2 mi SW 1.2 mph - N/A   Unknown
9:00 PM 57 °F - 42 °F 47% 30.22 in 4 mi South 4.6 mph - -   Clear
9:00 PM 57.2 °F - 41.0 °F 55% 30.21 in 4.3 mi South 4.6 mph - N/A   Unknown
9:30 PM 55.4 °F - 41.0 °F 58% 30.21 in - SE 4.6 mph - N/A   Clear
10:00 PM 55.4 °F - 41.0 °F 58% 30.21 in - Variable 2.3 mph - N/A   Clear
11:00 PM 53.6 °F - 39.2 °F 58% 30.21 in - Variable 1.2 mph - N/A   Clear
11:30 PM 51.8 °F - 37.4 °F 58% 30.21 in - SW 4.6 mph - N/A   Clear